ECVPM LEBB-LESO

Flight info

Callsign ECVPM
Flight time 0h 33m
Altitude 3500
Route N/ COASTLINE W/
Aircraft UH1/L-VGDW/C

Departure

Time 2026-04-17 11:08
Airport Bilbao Airport (LEBB)

Arrival

Time 2026-04-17 11:42
Airport San Sebastián Airport (LESO)
Time Latitude Longitude Altitude Speed Heading
2026-04-17 11:03 43.30095 -2.93174 126 ft 0 kts 277°
2026-04-17 11:06 43.30093 -2.93177 133 ft 3 kts 275°
2026-04-17 11:07 43.30108 -2.93250 152 ft 12 kts 336°
2026-04-17 11:07 43.30164 -2.93302 135 ft 5 kts 19°
2026-04-17 11:07 43.30203 -2.93321 181 ft 9 kts 84°
2026-04-17 11:07 43.30237 -2.93033 293 ft 73 kts 88°
2026-04-17 11:08 43.30367 -2.92245 394 ft 85 kts 81°
2026-04-17 11:08 43.30573 -2.91411 535 ft 95 kts 73°
2026-04-17 11:08 43.30586 -2.90477 672 ft 100 kts 101°
2026-04-17 11:08 43.30577 -2.89531 860 ft 98 kts 76°
2026-04-17 11:09 43.30800 -2.88761 1291 ft 83 kts 51°
2026-04-17 11:09 43.31169 -2.88111 1471 ft 88 kts 44°
2026-04-17 11:09 43.31628 -2.87507 1540 ft 99 kts 34°
2026-04-17 11:10 43.32756 -2.86481 1407 ft 95 kts 15°
2026-04-17 11:10 43.33407 -2.86122 1207 ft 102 kts 17°
2026-04-17 11:10 43.34021 -2.85708 1023 ft 95 kts 21°
2026-04-17 11:10 43.34625 -2.85311 767 ft 107 kts 17°
2026-04-17 11:11 43.35308 -2.84948 1099 ft 95 kts
2026-04-17 11:11 43.36019 -2.85042 1206 ft 111 kts 346°
2026-04-17 11:11 43.36773 -2.85317 1336 ft 110 kts 336°
2026-04-17 11:11 43.37433 -2.85684 1675 ft 96 kts 334°
2026-04-17 11:12 43.37961 -2.86037 2062 ft 92 kts 333°
2026-04-17 11:12 43.38631 -2.86518 1907 ft 122 kts 329°
2026-04-17 11:12 43.39349 -2.87058 1614 ft 120 kts 319°
2026-04-17 11:12 43.40026 -2.87798 1146 ft 113 kts 313°
2026-04-17 11:13 43.40584 -2.88422 1362 ft 101 kts 322°
2026-04-17 11:13 43.41185 -2.88856 1536 ft 96 kts 331°
2026-04-17 11:13 43.41837 -2.89152 1633 ft 100 kts 338°
2026-04-17 11:13 43.42537 -2.89287 1621 ft 110 kts
2026-04-17 11:14 43.43094 -2.88494 1247 ft 129 kts 70°
2026-04-17 11:14 43.43071 -2.87308 1325 ft 111 kts 85°
2026-04-17 11:14 43.43062 -2.86344 1587 ft 98 kts 85°
2026-04-17 11:14 43.42837 -2.85362 1463 ft 111 kts 101°
2026-04-17 11:15 43.42602 -2.84527 1409 ft 117 kts 90°
2026-04-17 11:15 43.42378 -2.83723 1837 ft 76 kts 107°
2026-04-17 11:15 43.42312 -2.82929 1936 ft 91 kts 82°
2026-04-17 11:15 43.42372 -2.82245 2248 ft 63 kts 81°
2026-04-17 11:16 43.42533 -2.81562 2414 ft 85 kts 63°
2026-04-17 11:16 43.42538 -2.80751 2788 ft 79 kts 103°
2026-04-17 11:16 43.42367 -2.79945 3156 ft 99 kts 104°
2026-04-17 11:16 43.42183 -2.78957 2940 ft 118 kts 96°
2026-04-17 11:17 43.42073 -2.77803 2662 ft 121 kts 90°
2026-04-17 11:17 43.42015 -2.76677 2508 ft 117 kts 83°
2026-04-17 11:17 43.42022 -2.75536 2238 ft 123 kts 86°
2026-04-17 11:17 43.41903 -2.74390 2061 ft 117 kts 93°
2026-04-17 11:18 43.41721 -2.73326 1962 ft 113 kts 97°
2026-04-17 11:18 43.41516 -2.72307 1927 ft 109 kts 96°
2026-04-17 11:18 43.41325 -2.71285 1814 ft 111 kts 98°
2026-04-17 11:18 43.41110 -2.70251 1411 ft 121 kts 97°
2026-04-17 11:19 43.40828 -2.69113 1210 ft 118 kts 98°
2026-04-17 11:19 43.40658 -2.68059 1197 ft 109 kts 87°
2026-04-17 11:19 43.40517 -2.67044 1343 ft 105 kts 99°
2026-04-17 11:19 43.40212 -2.66109 1398 ft 110 kts 110°
2026-04-17 11:20 43.39861 -2.65170 1469 ft 109 kts 109°
2026-04-17 11:20 43.39515 -2.64231 1524 ft 111 kts 107°
2026-04-17 11:20 43.39218 -2.63237 1507 ft 114 kts 104°
2026-04-17 11:20 43.38892 -2.62238 1501 ft 114 kts 107°
2026-04-17 11:21 43.38586 -2.61247 1508 ft 116 kts 102°
2026-04-17 11:21 43.38382 -2.60178 1535 ft 113 kts 93°
2026-04-17 11:21 43.38207 -2.59138 1579 ft 113 kts 97°
2026-04-17 11:21 43.37922 -2.58126 1582 ft 115 kts 108°
2026-04-17 11:22 43.37531 -2.57186 1693 ft 106 kts 113°
2026-04-17 11:22 43.37168 -2.56355 2004 ft 102 kts 114°
2026-04-17 11:22 43.36821 -2.55436 2100 ft 110 kts 107°
2026-04-17 11:22 43.36546 -2.54439 2208 ft 116 kts 103°
2026-04-17 11:23 43.36308 -2.53408 2402 ft 109 kts 101°
2026-04-17 11:23 43.36033 -2.52414 2518 ft 114 kts 108°
2026-04-17 11:23 43.35700 -2.51437 2698 ft 111 kts 110°
2026-04-17 11:23 43.35358 -2.50471 2781 ft 116 kts 111°
2026-04-17 11:24 43.34966 -2.49504 2857 ft 115 kts 117°
2026-04-17 11:24 43.34566 -2.48578 3015 ft 113 kts 116°
2026-04-17 11:24 43.34140 -2.47642 3072 ft 116 kts 121°
2026-04-17 11:24 43.33714 -2.46717 3183 ft 115 kts 117°
2026-04-17 11:25 43.33308 -2.45754 3298 ft 117 kts 119°
2026-04-17 11:25 43.32911 -2.44781 3278 ft 118 kts 115°
2026-04-17 11:25 43.32546 -2.43725 3006 ft 128 kts 108°
2026-04-17 11:25 43.32247 -2.42597 2995 ft 122 kts 102°
2026-04-17 11:26 43.32149 -2.41455 2905 ft 123 kts 81°
2026-04-17 11:26 43.32106 -2.40254 2736 ft 125 kts 100°
2026-04-17 11:26 43.31744 -2.39307 3014 ft 103 kts 118°
2026-04-17 11:26 43.31275 -2.38503 2998 ft 115 kts 127°
2026-04-17 11:27 43.30814 -2.37637 3103 ft 111 kts 116°
2026-04-17 11:27 43.30523 -2.36621 2958 ft 119 kts 102°
2026-04-17 11:27 43.30206 -2.35582 2706 ft 124 kts 108°
2026-04-17 11:27 43.29880 -2.34499 2508 ft 119 kts 99°
2026-04-17 11:28 43.29725 -2.33364 2241 ft 123 kts 89°
2026-04-17 11:28 43.29586 -2.32207 2061 ft 121 kts 91°
2026-04-17 11:28 43.29460 -2.31085 1910 ft 118 kts 90°
2026-04-17 11:28 43.29294 -2.29981 1795 ft 112 kts 90°
2026-04-17 11:29 43.29270 -2.28932 1727 ft 112 kts 73°
2026-04-17 11:29 43.29415 -2.27911 1795 ft 104 kts 70°
2026-04-17 11:29 43.29614 -2.26960 1800 ft 106 kts 60°
2026-04-17 11:29 43.29814 -2.25952 1680 ft 114 kts 77°
2026-04-17 11:30 43.29783 -2.24898 1743 ft 105 kts 87°
2026-04-17 11:30 43.29725 -2.23920 1744 ft 106 kts 86°
2026-04-17 11:30 43.29591 -2.22877 1624 ft 112 kts 94°
2026-04-17 11:30 43.29400 -2.21867 1577 ft 108 kts 96°
2026-04-17 11:31 43.29165 -2.20847 1514 ft 115 kts 100°
2026-04-17 11:31 43.28915 -2.19825 1520 ft 111 kts 100°
2026-04-17 11:31 43.28680 -2.18807 1460 ft 113 kts 96°
2026-04-17 11:31 43.28621 -2.17735 1443 ft 109 kts 82°
2026-04-17 11:32 43.28696 -2.16735 1579 ft 105 kts 72°
2026-04-17 11:32 43.28829 -2.15750 1691 ft 104 kts 73°
2026-04-17 11:32 43.28918 -2.14781 1712 ft 100 kts 76°
2026-04-17 11:32 43.28990 -2.13822 1842 ft 96 kts 71°
2026-04-17 11:33 43.29169 -2.12965 2052 ft 94 kts 66°
2026-04-17 11:33 43.29269 -2.12075 2097 ft 99 kts 80°
2026-04-17 11:33 43.29246 -2.11136 2249 ft 95 kts 86°
2026-04-17 11:33 43.29233 -2.10227 2308 ft 99 kts 85°
2026-04-17 11:34 43.29235 -2.09254 2357 ft 103 kts 80°
2026-04-17 11:34 43.29490 -2.08292 2313 ft 110 kts 53°
2026-04-17 11:34 43.29834 -2.07373 2399 ft 106 kts 58°
2026-04-17 11:34 43.30150 -2.06455 2399 ft 110 kts 49°
2026-04-17 11:35 43.30703 -2.05685 2148 ft 115 kts 33°
2026-04-17 11:35 43.31393 -2.05008 1631 ft 124 kts 29°
2026-04-17 11:35 43.31819 -2.03943 1016 ft 130 kts 60°
2026-04-17 11:35 43.32151 -2.02823 663 ft 119 kts 60°
2026-04-17 11:36 43.32340 -2.01763 471 ft 111 kts 72°
2026-04-17 11:36 43.32399 -2.00756 398 ft 102 kts 87°
2026-04-17 11:36 43.31892 -2.00063 358 ft 108 kts 141°
2026-04-17 11:36 43.31549 -1.99339 523 ft 88 kts 89°
2026-04-17 11:37 43.31493 -1.98392 567 ft 109 kts 86°
2026-04-17 11:37 43.31421 -1.97350 645 ft 108 kts 84°
2026-04-17 11:37 43.31428 -1.96389 888 ft 99 kts 78°
2026-04-17 11:37 43.31493 -1.95382 910 ft 111 kts 76°
2026-04-17 11:38 43.31557 -1.94322 1010 ft 111 kts 77°
2026-04-17 11:38 43.31634 -1.93222 1143 ft 119 kts 78°
2026-04-17 11:38 43.31689 -1.92062 1147 ft 126 kts 80°
2026-04-17 11:38 43.31679 -1.90866 1290 ft 121 kts 82°
2026-04-17 11:39 43.31783 -1.89751 1412 ft 121 kts 68°
2026-04-17 11:39 43.31973 -1.88632 1491 ft 119 kts 69°
2026-04-17 11:39 43.32188 -1.87525 1498 ft 123 kts 67°
2026-04-17 11:39 43.32406 -1.86393 1480 ft 124 kts 65°
2026-04-17 11:40 43.32749 -1.85323 1419 ft 121 kts 56°
2026-04-17 11:40 43.32987 -1.84200 1277 ft 124 kts 70°
2026-04-17 11:40 43.33109 -1.83041 1203 ft 120 kts 71°
2026-04-17 11:40 43.33370 -1.82018 1289 ft 103 kts 54°
2026-04-17 11:41 43.33768 -1.81165 976 ft 111 kts 40°
2026-04-17 11:41 43.34295 -1.80437 869 ft 90 kts 26°
2026-04-17 11:41 43.34773 -1.80040 591 ft 78 kts 23°
2026-04-17 11:41 43.35150 -1.79575 157 ft 69 kts 36°
2026-04-17 11:42 43.35440 -1.79297 39 ft 26 kts 16°
2026-04-17 11:42 43.35437 -1.79314 35 ft 5 kts 27°
2026-04-17 11:42 43.35461 -1.79305 36 ft 13 kts 20°
2026-04-17 11:42 43.35521 -1.79294 28 ft 5 kts 15°
2026-04-17 11:43 43.35555 -1.79328 30 ft 9 kts 52°
2026-04-17 11:43 43.35566 -1.79330 16 ft 0 kts 46°